Location: Lanoux
(43.1180°N, 1.4255°E)
Time: 16:24:59
(UTC+00:00)

SJ-6F - Pass Details

Date: 13 December 2025
Orbit: 542 x 570 km, 97.9° (Epoch: 22 January)

Event Time Altitude Azimuth Distance (km) Brightness Sun altitude
Rises 17:35:41 0° 159° (SSE) 2,718 7.9 -13.4°
Reaches altitude 10° 17:37:48 10° 157° (SSE) 1,833 6.9 -13.7°
Maximum altitude 17:41:44 68° 75° (ENE) 608 4.2 -14.4°
Drops below altitude 10° 17:45:44 10° 352° (N) 1,865 6.9 -15.1°
Sets 17:47:54 0° 350° (N) 2,771 7.8 -15.5°
